Theta_e
335 334 332 333 334 334 334 334 334 333 334 334 332 333 335 334 335 335 335 335 336 336 335 335 333 333 334 333 334 335 334 334 334 332 331 330 328 326 324 322 321 324 327 328 327 328 328 328 327 327 326 326 325 323 321 319 315 312 308 306 304 304 304 304 304 304 304 303 303 305 307 310 313 316 318 320 322 323 325 326 327 329 329 328 327
335 335 333 333 333 333 334 334 335 334 334 334 333 333 333 333 334 335 335 335 335 335 335 334 334 333 333 333 334 334 334 334 333 332 331 330 328 327 325 322 320 320 323 326 326 326 326 326 325 325 324 324 322 319 315 311 307 304 302 301 301 301 301 301 301 301 301 300 301 300 300 302 303 305 308 311 314 316 320 322 325 326 327 327 327
335 335 333 334 333 332 333 334 334 333 333 334 333 331 331 331 332 334 334 334 335 335 334 333 333 333 333 333 333 333 334 334 334 332 330 329 328 327 325 323 322 320 321 323 324 323 323 322 322 321 319 316 313 310 307 303 302 301 301 301 301 301 300 300 300 300 300 300 300 300 300 300 300 300 300 302 304 306 310 313 317 321 323 325 326
334 334 333 333 333 332 332 332 331 333 332 331 331 330 331 332 329 331 334 333 334 335 335 334 333 333 333 333 333 332 332 332 332 331 329 329 327 326 325 324 324 322 321 321 321 320 317 315 312 310 308 306 304 302 302 301 301 301 301 301 301 300 300 300 300 300 299 300 299 299 299 299 299 299 299 299 299 300 301 303 306 310 314 319 322
333 333 332 332 332 332 332 330 330 333 333 332 331 329 331 332 328 328 331 329 332 335 335 334 333 333 333 333 332 332 331 330 330 330 329 328 327 326 325 325 324 323 322 321 319 315 309 305 304 302 302 301 301 301 301 301 301 301 301 300 300 300 300 300 300 300 300 299 299 299 299 299 299 299 299 299 299 299 299 299 300 301 304 308 313
333 332 331 332 332 332 332 331 330 331 332 331 330 328 328 330 328 329 329 328 333 335 334 334 333 333 332 332 332 331 331 330 329 328 328 327 326 326 325 325 324 322 320 318 314 308 303 301 301 301 301 301 301 301 301 301 300 300 300 300 300 300 300 300 300 299 299 299 299 299 299 299 299 299 299 299 299 299 299 299 299 299 299 300 304
332 331 331 331 329 330 330 330 330 329 329 328 326 327 329 329 328 329 331 332 333 334 334 334 332 332 332 331 331 329 329 328 327 327 326 326 325 325 325 324 324 322 320 315 308 303 301 301 301 301 301 301 301 301 300 300 300 300 300 299 299 299 299 299 299 299 299 299 299 299 299 299 299 299 299 299 299 298 299 299 299 299 299 299 299
332 331 332 330 328 329 329 329 330 329 328 328 327 329 331 331 329 329 333 334 333 333 334 333 332 331 331 330 329 327 326 325 325 324 324 323 323 323 323 324 323 321 316 309 303 301 301 301 301 301 301 301 300 300 300 300 299 299 299 299 299 299 299 299 299 299 299 299 299 299 299 299 298 298 298 298 298 298 298 298 298 298 298 299 299
332 332 333 331 329 329 328 328 329 329 330 331 331 332 332 331 329 330 334 335 333 333 333 333 332 331 330 330 328 326 324 324 324 323 323 322 322 323 323 322 319 314 307 302 301 301 301 301 301 301 300 300 300 300 299 299 299 299 299 299 298 298 298 298 298 298 298 298 298 298 298 298 298 298 298 298 298 298 298 298 298 298 299 299 298
332 332 333 331 331 331 329 328 330 330 332 332 333 333 333 331 330 330 334 334 333 333 333 332 332 331 330 329 327 325 323 323 323 323 322 322 322 321 320 316 310 304 301 301 301 301 301 301 301 300 300 300 299 299 299 299 299 299 298 298 298 298 298 298 298 298 298 298 298 298 297 297 297 297 297 297 298 297 298 298 297 298 299 300 299
332 331 332 332 332 332 330 330 330 331 333 333 333 332 331 330 329 329 332 334 334 333 332 332 331 330 328 325 323 322 322 322 321 321 321 321 319 315 310 306 302 301 301 301 301 300 300 300 300 300 300 300 299 299 299 299 298 298 298 298 298 298 298 297 297 297 297 297 297 297 297 297 297 297 297 297 297 297 297 297 297 297 299 300 300
332 331 331 331 332 332 332 331 330 332 333 333 332 331 329 328 328 329 330 333 333 332 332 332 331 329 327 323 319 320 321 321 320 320 319 316 311 306 302 301 301 301 301 301 301 300 300 300 299 299 299 299 299 299 299 298 298 298 298 297 298 298 297 297 297 297 297 297 297 297 297 297 297 297 297 297 296 297 297 297 297 296 297 298 299
332 331 331 331 332 333 332 331 331 333 333 333 332 331 329 328 328 328 329 331 331 332 332 331 331 328 325 322 319 320 321 320 320 319 314 309 305 302 301 301 301 301 300 301 301 300 299 299 299 299 299 299 299 299 299 298 298 298 297 297 297 297 297 297 297 297 297 297 296 296 296 296 297 296 296 297 297 297 296 296 297 298 297 297 298
332 332 332 332 333 332 332 332 332 332 331 331 330 330 330 329 328 328 329 329 330 331 331 330 330 327 324 322 320 321 321 320 321 317 308 303 301 300 300 301 301 300 300 300 300 300 299 299 298 298 298 298 299 299 299 298 298 298 297 297 297 297 297 297 297 297 296 296 296 296 296 296 296 296 297 297 297 297 298 299 301 301 301 300 301
332 333 333 333 333 333 333 333 332 330 328 328 328 329 330 329 328 328 329 329 328 330 330 330 329 326 325 323 322 323 322 321 320 313 305 301 300 300 300 300 300 300 300 300 300 300 299 299 298 298 298 298 299 299 298 298 298 298 297 297 297 297 297 297 296 296 296 296 296 296 296 297 297 298 298 298 299 299 300 300 302 301 302 304 305
332 333 333 333 333 332 332 331 329 327 325 325 325 326 327 328 327 327 329 329 329 329 329 329 327 325 325 325 324 324 323 324 321 310 304 301 300 300 300 300 300 300 300 300 299 299 299 299 299 298 299 299 298 298 298 298 298 298 297 297 297 296 296 296 296 296 296 296 296 296 297 297 298 299 300 302 303 302 301 301 302 301 301 303 304
332 332 332 331 330 330 329 328 327 325 324 323 323 324 325 326 327 327 327 327 329 328 327 327 326 325 325 325 326 325 325 326 321 310 306 304 304 304 301 300 300 299 300 299 298 298 299 299 299 299 299 298 298 298 298 298 298 297 297 297 297 297 297 296 296 296 296 296 296 297 297 297 298 299 301 304 304 303 302 302 302 302 301 301 302
333 331 330 329 329 328 327 326 325 324 322 322 323 324 324 326 327 327 324 323 326 328 327 327 326 326 326 326 326 324 324 324 319 313 312 310 310 309 306 304 303 300 300 300 299 298 299 299 299 299 299 298 298 298 298 298 297 297 297 297 297 297 297 297 297 296 297 297 297 297 297 298 299 299 302 304 304 304 304 303 303 303 302 302 302
332 332 331 330 329 328 327 326 324 323 323 322 323 323 323 324 325 325 323 321 323 326 326 325 325 327 327 326 325 323 322 322 318 317 316 314 313 312 311 310 307 304 304 303 302 300 299 299 299 299 298 298 298 298 297 297 297 297 297 297 297 297 297 297 297 297 297 297 297 298 299 300 301 301 303 304 304 304 304 304 304 304 303 303 303
332 331 331 330 329 327 326 324 324 324 324 323 323 322 322 322 321 321 322 322 321 321 320 318 318 323 324 324 323 320 320 321 318 317 315 313 313 313 314 312 308 306 307 306 305 302 301 300 299 299 298 298 298 298 298 297 297 297 297 297 298 297 297 297 297 297 297 297 298 298 300 301 301 302 304 304 304 304 304 304 304 304 304 303 303
331 331 330 329 327 326 324 324 324 324 324 322 321 320 320 319 317 318 320 321 320 316 313 310 309 313 316 316 315 315 318 320 318 316 314 312 312 312 312 310 307 307 308 307 306 304 302 301 300 300 299 299 299 298 298 298 298 298 298 298 298 298 298 297 297 297 297 298 298 299 300 300 301 302 304 304 304 304 303 303 303 303 303 303 303
330 330 329 327 326 325 324 324 324 324 323 321 320 318 316 316 314 314 315 316 316 312 309 308 305 306 307 307 307 308 312 317 318 317 314 311 310 310 309 308 307 308 308 307 306 304 303 302 301 301 301 301 300 300 299 298 298 298 298 298 298 298 298 298 297 297 298 298 298 299 300 300 300 302 304 304 303 303 303 303 303 303 302 302 302
330 329 328 326 326 325 324 324 323 323 322 321 319 316 313 312 311 310 309 309 309 307 307 307 304 303 303 303 304 303 306 310 312 313 312 311 310 309 309 308 307 307 308 307 306 304 302 302 302 302 302 302 301 301 300 298 298 299 298 298 298 298 298 298 297 297 298 298 299 299 300 300 300 301 302 302 302 302 302 302 302 302 301 301 301
331 329 327 325 325 325 324 323 322 322 321 320 318 315 312 310 309 307 305 304 304 304 304 304 303 302 302 302 303 302 303 304 305 306 307 309 309 309 308 307 306 307 308 307 305 303 302 302 302 302 302 302 302 301 300 299 299 299 299 298 298 298 298 298 297 297 298 298 299 300 300 300 299 299 300 301 301 301 301 301 301 301 300 300 300
330 329 326 325 325 325 324 323 322 321 320 319 316 313 310 309 307 305 303 302 302 302 302 302 302 302 302 302 302 302 302 303 302 302 302 304 306 308 308 307 306 306 306 306 305 303 302 302 302 302 302 302 302 301 299 298 299 299 299 299 298 298 298 298 298 297 298 298 299 299 299 299 299 299 300 300 300 301 301 301 300 300 300 300 300
330 328 326 325 324 324 324 323 322 320 318 316 314 310 307 306 304 303 302 302 302 302 302 302 302 302 301 301 301 301 301 301 301 301 300 301 302 304 306 305 306 307 306 306 305 303 302 303 302 301 302 302 302 300 298 298 299 299 299 299 299 299 298 298 297 297 297 298 299 299 298 299 299 299 300 300 300 301 300 300 299 299 299 299 299
329 327 325 325 324 324 324 322 320 318 316 314 311 308 305 303 302 302 302 301 302 301 301 301 301 301 301 301 301 301 300 300 300 300 299 299 300 300 301 303 306 307 306 306 306 304 304 304 301 300 300 301 300 299 298 298 299 299 299 300 299 299 298 297 297 296 297 297 298 298 298 299 299 300 300 300 300 300 300 300 299 299 298 298 298
329 327 325 324 324 324 323 321 319 316 313 310 307 305 303 302 301 301 301 301 301 301 301 301 301 301 301 300 300 300 300 300 299 299 299 299 299 299 299 303 307 307 305 306 306 305 305 303 300 298 299 299 298 298 298 298 299 299 300 300 299 298 297 296 296 296 296 296 297 297 298 299 299 300 300 300 300 300 300 300 299 299 298 298 297
327 326 325 324 323 323 322 320 317 313 310 307 304 302 301 301 301 301 301 301 301 301 301 301 301 301 300 300 300 300 299 299 299 299 299 299 299 299 299 302 305 303 302 304 304 303 302 300 298 298 298 298 298 298 298 298 299 300 300 300 299 298 296 296 296 296 295 296 297 297 298 299 299 300 301 300 300 300 300 299 299 299 298 298 298
326 325 324 323 323 323 321 317 312 309 306 303 301 300 300 300 300 301 301 301 301 301 301 301 300 300 300 300 299 299 299 299 298 298 298 298 298 298 298 299 300 298 298 300 300 300 300 298 298 298 298 298 298 298 298 298 299 300 300 299 298 297 296 296 296 296 295 296 297 297 298 299 300 300 300 300 300 300 300 299 299 299 298 298 298
325 324 324 323 322 322 319 312 308 306 304 302 301 300 300 300 300 301 301 301 301 300 300 300 300 300 299 299 299 299 299 298 298 298 298 298 298 298 298 298 298 298 298 298 299 299 299 298 298 298 297 298 298 298 298 299 299 299 299 298 297 296 296 296 296 295 295 296 296 297 298 299 300 300 300 300 300 300 300 299 299 299 298 298 297
325 324 323 323 322 322 316 308 305 304 302 301 300 300 300 300 300 301 300 300 300 300 300 300 299 299 299 299 299 299 298 298 298 298 298 298 298 298 298 298 298 298 298 298 298 298 298 298 298 297 297 297 297 298 298 299 299 299 298 297 296 296 296 296 296 295 295 296 297 297 298 299 300 301 300 300 300 300 300 300 299 298 298 297 296
324 324 324 323 322 319 312 306 304 303 301 301 300 300 300 300 300 300 300 300 300 300 299 299 299 299 299 299 298 298 298 298 298 298 298 298 298 298 298 298 298 297 298 298 298 298 298 298 297 297 297 297 297 297 298 298 298 297 296 295 296 296 296 295 295 295 295 296 297 298 298 299 300 300 300 300 300 300 300 299 298 298 298 297 296
324 324 324 323 320 316 310 306 303 302 301 300 300 300 300 300 300 300 300 300 300 299 299 299 299 299 299 298 298 298 298 298 298 298 298 298 298 298 298 297 298 298 298 298 297 298 298 298 297 297 297 296 296 296 297 297 297 296 295 295 296 296 296 295 295 295 296 296 297 297 298 299 299 299 300 300 300 300 300 299 298 298 298 297 296
325 325 324 322 318 313 308 305 302 301 300 300 299 300 300 300 300 300 300 300 299 299 299 299 299 298 298 298 298 298 298 298 298 298 298 298 298 298 298 297 298 298 297 297 297 297 297 298 297 296 296 296 296 296 296 296 295 295 295 295 295 295 296 296 295 295 296 296 297 297 298 298 299 299 299 300 300 300 299 298 298 298 297 297 296
325 325 323 320 316 310 306 304 302 301 300 300 299 300 299 300 299 299 300 299 299 299 299 299 298 298 298 298 297 297 297 298 298 298 298 298 298 298 298 297 298 297 297 297 297 297 297 297 297 296 296 296 295 295 295 295 295 295 295 295 295 295 296 296 296 296 296 296 297 297 298 298 299 299 300 300 300 300 299 298 298 298 297 297 297
326 325 323 320 314 309 306 304 302 301 300 300 299 300 299 299 299 299 299 299 299 299 298 298 298 298 298 297 297 297 297 298 298 297 297 297 297 297 297 298 297 297 297 297 297 297 296 296 296 296 296 295 295 295 295 294 295 295 295 295 295 295 296 296 296 296 296 296 296 296 297 298 298 299 299 300 300 299 299 298 298 298 297 297 297
326 325 323 319 314 309 306 304 302 301 300 299 299 299 299 299 299 299 299 299 299 299 298 298 298 298 297 297 297 297 297 298 297 297 297 297 297 297 297 297 297 297 297 297 297 297 296 296 296 296 296 295 295 295 295 295 295 295 296 296 295 295 296 296 296 296 296 296 296 296 297 297 298 298 299 299 299 299 298 298 298 298 297 297 297
326 325 323 319 314 310 307 304 302 301 300 299 299 299 299 299 299 299 299 299 299 298 298 298 298 298 297 297 297 297 297 297 297 297 297 297 297 297 297 297 297 297 297 297 297 297 296 296 296 295 295 295 295 295 295 295 295 296 297 297 296 296 296 296 296 296 296 296 296 296 296 297 297 298 298 299 299 298 298 298 298 298 297 297 297
326 325 324 321 314 309 307 304 302 301 300 299 299 299 299 299 299 299 299 299 298 298 299 298 298 298 297 297 297 297 297 297 297 297 297 297 297 297 297 297 297 297 297 297 297 297 296 296 295 295 295 295 296 296 296 296 297 297 298 298 298 297 296 296 296 296 296 296 296 296 296 297 297 298 298 298 298 298 298 298 298 297 297 297 297
326 325 324 321 315 310 307 304 303 301 299 299 299 298 299 300 300 299 299 299 298 298 298 298 298 298 298 297 297 297 296 296 296 296 296 296 297 297 297 297 297 297 297 297 297 297 296 296 295 295 295 296 297 297 297 298 298 298 298 298 298 297 297 296 296 296 296 296 296 296 296 296 297 297 298 298 298 298 298 298 298 297 297 297 297
326 325 323 320 315 310 307 305 304 303 300 300 299 298 301 303 301 299 299 299 298 298 298 298 298 298 298 297 297 297 297 296 296 296 296 296 297 297 297 297 297 297 297 298 297 297 296 296 295 295 296 297 297 298 298 298 298 298 298 298 298 297 297 297 296 296 296 296 296 296 296 296 297 297 297 298 298 298 298 298 297 297 297 297 296
326 325 323 319 314 310 308 306 305 304 302 300 299 301 304 304 300 298 299 299 298 298 298 297 298 298 297 297 297 296 296 296 296 296 296 296 296 297 297 297 297 297 298 298 297 297 297 296 295 296 297 298 298 298 299 298 298 298 298 298 298 297 297 297 297 296 296 296 297 296 296 296 296 297 297 298 298 298 298 297 297 297 297 297 296
326 324 321 318 314 310 308 307 306 305 304 301 301 304 305 301 298 299 299 299 299 298 297 297 297 297 297 297 297 296 296 296 296 296 296 296 296 296 296 296 297 297 297 297 298 298 297 296 296 297 298 299 298 299 299 298 299 299 298 298 298 298 297 297 297 297 296 296 297 296 296 296 296 297 297 297 298 298 297 297 297 297 297 296 296
326 323 319 316 313 311 309 308 307 306 304 302 303 304 302 299 298 299 299 299 298 298 297 297 297 297 296 297 297 296 295 296 296 296 296 296 296 297 297 296 297 297 297 298 298 298 296 296 297 298 299 299 299 299 299 299 299 299 298 299 298 298 298 297 297 297 296 296 297 297 296 296 296 297 297 297 297 297 297 297 297 297 297 296 296
325 322 319 317 314 311 309 308 308 306 305 305 305 303 301 299 299 299 300 299 298 298 298 297 297 298 298 298 298 297 296 295 296 296 296 296 297 297 297 297 297 297 297 297 297 296 296 296 298 298 299 299 299 299 299 299 299 299 299 299 299 298 298 297 297 296 296 296 296 296 296 296 297 297 297 297 297 297 297 297 297 297 297 296 296
325 323 320 317 315 312 310 309 308 306 305 306 306 302 300 300 300 300 300 299 298 299 299 298 299 301 302 302 301 299 297 296 297 296 296 296 297 296 297 297 297 297 297 297 296 296 296 297 298 299 299 299 300 299 299 299 299 299 299 299 299 299 299 298 297 296 296 296 296 296 296 296 296 297 297 297 297 297 297 296 297 297 297 296 296
323 321 319 317 315 312 310 309 308 306 305 306 305 302 301 301 301 301 301 300 300 301 300 300 302 304 305 304 303 300 297 296 297 297 296 296 296 296 296 297 297 297 297 296 296 296 297 298 299 300 300 300 300 300 300 300 299 299 299 299 299 299 299 299 298 297 296 296 296 296 296 296 296 297 297 296 296 297 297 296 296 297 297 297 297
324 321 318 316 314 312 310 308 306 304 304 305 304 302 302 301 301 301 301 301 302 303 302 302 304 305 305 304 303 302 298 296 297 296 296 296 296 296 297 297 297 297 296 296 296 297 298 298 300 300 300 300 300 300 299 299 299 300 300 300 299 299 299 299 298 297 297 296 296 296 296 297 296 296 297 296 296 297 297 296 296 297 297 297 297
324 322 319 317 315 313 310 308 305 303 303 304 303 302 302 301 300 300 301 303 303 303 303 303 304 305 304 303 302 300 298 296 296 296 296 296 296 296 297 297 297 297 296 296 297 297 298 299 300 300 300 300 300 299 299 299 299 300 300 299 299 299 299 299 299 298 297 296 296 296 297 297 296 296 297 296 297 297 296 296 296 297 297 297 297
324 321 319 317 315 313 310 307 304 302 302 303 302 301 301 300 300 300 301 303 303 302 302 303 303 303 302 300 298 297 296 295 296 296 296 295 296 296 296 297 297 296 296 297 297 297 298 299 300 300 300 299 299 299 299 300 300 299 299 299 299 299 299 299 299 298 298 297 296 296 297 297 296 297 297 297 297 297 296 296 296 296 297 297 297
Wind_Speed
5 4 4 4 4 5 6 6 7 8 8 7 7 7 6 6 5 4 4 5 4 3 2 2 2 2 2 1 1 2 3 4 4 4 4 4 5 5 5 5 4 4 3 3 4 4 5 6 7 8 9 11 13 15 15 16 17 17 17 17 18 18 18 18 18 18 18 19 18 16 15 15 15 15 15 15 14 14 11 10 9 10 9 12 14
5 4 4 5 5 4 6 7 7 8 8 7 7 7 6 6 7 7 6 5 5 4 2 2 4 3 2 1 4 0 1 3 3 3 4 4 5 6 5 5 7 7 5 5 5 6 8 8 9 10 11 13 15 17 17 17 17 18 18 18 18 18 19 19 18 19 19 19 19 19 18 17 16 15 15 16 16 16 15 13 12 12 13 13 13
5 4 4 5 6 5 6 7 7 7 7 8 8 6 7 7 6 7 7 6 5 5 3 4 7 7 5 6 7 3 3 1 0 1 2 5 7 7 7 6 7 8 7 7 7 8 10 10 10 11 12 13 15 15 16 16 16 16 17 17 17 18 18 18 18 19 19 20 19 19 19 18 17 16 16 15 16 16 17 16 15 16 16 15 13
6 6 6 6 6 6 7 8 7 7 7 8 8 7 7 6 6 7 7 6 4 5 4 5 8 11 12 12 10 6 5 5 5 4 4 6 8 10 10 9 8 9 8 8 9 9 10 10 10 10 11 12 13 14 14 15 15 15 16 16 17 17 18 18 18 18 19 19 19 19 19 19 18 17 17 16 15 16 16 15 16 17 18 18 17
6 6 6 6 6 6 7 7 6 7 8 8 8 9 8 7 8 8 8 7 3 4 7 8 10 12 13 13 12 10 7 7 8 8 8 8 9 10 11 11 11 11 10 9 9 9 9 10 10 10 10 11 12 13 14 14 14 15 15 15 16 16 17 17 17 17 17 18 18 18 18 18 18 18 17 17 16 16 16 15 15 15 17 18 19
7 7 7 7 7 7 8 8 7 9 9 8 9 9 9 9 10 9 9 7 3 6 11 11 11 12 13 13 13 13 12 10 9 9 10 10 10 11 11 12 13 13 11 10 9 9 9 9 9 9 9 10 11 11 12 13 13 14 14 14 14 15 16 16 17 17 17 18 18 18 18 18 18 18 18 17 17 17 17 16 15 15 15 16 17
7 7 9 9 8 8 9 9 9 9 9 10 9 8 9 9 10 11 9 7 6 9 12 12 13 14 14 14 13 13 13 13 12 10 10 11 11 12 13 13 13 13 12 9 8 8 8 8 8 8 8 9 10 10 11 12 12 13 13 13 14 14 15 16 17 18 18 19 19 19 19 19 20 20 20 19 18 18 18 17 17 17 16 15 15
7 8 9 10 9 9 10 10 10 10 9 10 10 10 11 11 12 11 10 9 9 11 12 13 13 13 14 13 13 12 13 13 13 11 9 8 8 9 10 11 12 12 11 10 8 6 6 7 7 8 8 9 9 9 10 11 11 12 12 13 14 15 15 16 17 17 18 19 19 20 21 21 22 22 23 23 23 22 21 20 18 18 18 17 16
7 9 10 11 10 10 11 12 11 11 10 11 11 10 10 11 11 11 13 13 12 14 15 16 15 14 14 13 13 13 14 14 12 11 9 8 8 8 9 9 10 9 9 8 7 6 6 6 7 7 7 8 8 9 10 10 11 12 13 15 15 16 16 16 17 17 18 18 19 20 21 22 22 23 23 24 24 25 25 25 23 21 19 19 17
8 10 11 11 11 12 13 12 12 12 11 13 12 9 9 11 10 12 16 15 14 16 17 18 18 16 14 12 13 13 14 13 11 10 9 8 8 8 8 8 8 6 5 6 6 6 6 7 6 6 6 7 7 8 9 10 11 13 14 15 15 16 16 16 17 17 18 19 20 20 21 21 21 22 22 22 23 24 25 26 26 25 22 20 19
9 10 11 12 13 14 14 14 14 14 14 15 14 13 12 14 14 13 18 16 14 17 19 19 17 13 10 9 9 11 11 10 8 7 6 6 7 6 6 5 5 4 3 4 5 5 6 7 7 7 7 7 7 7 9 11 12 14 14 14 15 15 16 16 17 18 18 19 20 21 21 21 21 21 21 21 22 22 23 24 25 26 25 23 22
10 10 12 14 14 15 16 15 15 15 16 15 15 16 14 14 15 14 17 17 14 17 18 18 14 10 7 6 6 8 8 6 5 4 4 4 5 4 3 3 3 4 4 5 4 3 4 5 6 8 9 10 10 9 10 11 12 13 14 14 14 15 16 17 18 19 19 20 21 21 21 21 22 22 22 22 22 22 22 22 23 24 25 26 26
11 12 14 15 16 16 16 15 15 15 15 14 16 17 13 12 13 13 16 16 15 17 16 15 12 9 7 5 7 8 6 5 4 4 3 3 3 3 4 4 3 4 5 5 3 2 3 4 6 7 8 10 10 10 11 11 12 13 14 14 15 16 17 18 19 20 20 21 21 21 22 22 23 23 23 23 23 23 23 23 22 22 22 24 25
13 13 15 16 17 17 16 15 15 14 15 16 18 17 15 13 13 13 15 16 17 17 16 15 11 8 6 6 9 7 4 4 4 4 3 2 2 2 4 4 4 3 5 5 3 3 3 4 5 7 8 8 9 10 12 12 13 14 15 16 17 18 18 19 20 20 20 20 21 22 22 23 24 24 24 25 24 24 24 24 23 22 21 22 22
14 14 15 15 16 16 15 14 14 13 15 17 19 19 17 16 13 14 16 17 18 18 17 16 12 10 8 6 7 6 4 5 5 5 3 2 1 2 2 4 4 4 5 4 4 5 5 4 5 7 8 8 10 11 13 14 14 15 16 17 18 19 19 19 20 21 21 21 22 23 23 24 24 25 25 25 25 24 24 24 24 24 23 21 21
17 16 16 16 16 16 15 14 13 13 13 14 16 16 17 16 14 16 20 18 19 20 19 18 15 12 9 5 5 5 5 6 7 6 4 3 2 1 3 5 5 6 6 5 6 6 6 6 6 8 9 10 11 12 13 14 15 16 17 18 19 19 19 20 20 21 22 22 23 24 24 25 25 26 25 23 23 25 25 24 25 26 25 23 22
15 16 16 17 17 16 15 13 12 12 13 13 13 12 14 16 15 17 21 20 20 22 20 18 15 12 9 6 6 7 8 7 7 7 6 5 2 2 3 4 6 6 6 5 6 6 7 7 6 7 10 12 13 13 14 16 16 17 18 18 19 19 19 20 21 22 22 23 24 25 26 26 26 27 26 23 23 26 26 24 24 25 26 25 24
14 14 15 15 14 15 15 13 13 13 13 14 13 12 14 18 18 17 19 20 21 21 20 18 16 13 11 9 7 6 7 8 8 7 7 5 2 1 2 3 6 7 7 8 8 8 8 7 7 9 11 13 14 14 16 17 17 18 18 18 19 20 20 21 22 23 24 25 26 27 28 28 28 29 26 22 23 25 25 25 25 26 27 27 26
15 15 15 14 12 14 15 13 13 13 12 13 14 14 15 17 18 19 19 19 20 19 19 18 18 17 15 12 9 6 5 6 7 6 5 5 2 2 3 4 5 6 7 10 10 10 9 7 8 11 13 13 14 15 16 17 17 17 17 18 20 21 21 22 23 25 26 27 28 28 29 28 29 29 25 22 23 24 24 25 25 25 27 28 28
17 16 16 14 12 14 15 13 13 13 13 14 14 15 14 14 15 17 19 18 17 17 18 18 19 19 18 16 12 8 6 7 7 5 3 3 2 2 3 3 4 5 7 9 11 10 9 8 8 11 14 15 15 16 17 17 17 17 17 18 20 22 22 23 25 26 27 28 29 29 29 29 28 27 24 23 24 24 25 26 25 26 27 28 29
17 17 16 14 12 14 15 14 13 13 13 12 12 13 13 12 13 15 17 18 16 14 14 15 16 18 18 16 13 11 11 11 9 7 4 2 1 1 1 2 3 4 4 7 10 10 9 11 12 13 15 17 18 18 19 18 17 16 17 19 21 23 24 25 26 27 28 29 29 30 30 29 29 27 25 25 25 25 27 27 27 27 28 29 30
18 17 16 13 12 13 14 14 14 13 12 11 11 11 12 13 13 13 15 16 16 14 13 13 13 14 14 14 13 13 14 14 12 11 9 6 4 1 0 2 4 4 4 5 7 9 9 12 15 15 15 18 19 19 20 19 18 17 18 19 21 24 25 26 27 28 29 30 30 30 30 29 29 27 26 25 25 26 28 28 29 29 30 32 33
18 17 16 16 14 13 13 14 14 13 12 11 11 11 12 13 13 14 15 15 15 14 13 13 12 12 11 12 12 12 12 13 13 13 12 9 6 4 3 1 3 4 4 5 6 7 8 11 14 14 14 16 17 18 20 19 18 18 18 20 22 25 26 27 28 29 30 31 31 30 29 29 29 28 27 26 26 27 28 29 30 32 35 36 37
19 18 18 17 15 13 13 15 15 14 13 11 11 12 13 13 13 14 14 14 15 14 13 12 12 11 10 10 11 10 10 10 10 12 12 10 8 6 5 4 1 1 2 5 5 5 7 9 12 12 11 11 14 17 19 18 17 17 18 20 23 25 27 28 28 29 30 30 30 29 29 28 28 28 28 28 28 28 29 31 34 37 39 38 38
19 19 19 17 15 14 14 15 16 15 14 12 10 12 12 13 13 13 13 13 14 13 12 12 11 11 10 10 10 9 9 8 7 8 10 10 10 9 7 4 2 2 2 2 1 4 6 6 8 7 6 8 13 16 17 16 16 17 19 22 24 26 27 28 29 30 30 29 29 28 28 28 28 28 28 28 27 27 29 33 38 41 40 38 38
19 18 19 18 16 16 15 16 16 14 13 12 11 11 11 12 12 12 12 13 13 12 11 11 11 10 10 9 9 8 8 7 7 7 8 8 9 10 9 6 4 2 2 2 4 2 2 3 4 4 5 10 13 14 15 15 16 18 20 22 25 27 28 29 29 29 29 29 28 28 28 27 26 27 27 26 26 28 31 36 43 44 40 38 38
18 18 19 19 18 17 16 15 14 14 13 12 11 11 11 11 11 12 12 12 12 11 10 10 10 9 9 8 7 7 6 7 6 6 6 7 7 7 7 6 7 5 4 7 7 3 3 4 6 7 8 10 11 12 14 16 17 19 21 23 25 27 29 29 29 28 29 29 29 28 26 25 25 26 25 26 27 29 33 38 45 47 44 41 41
18 16 17 18 18 16 13 12 12 13 13 12 11 10 11 11 12 12 13 13 12 11 11 10 10 9 8 7 6 6 5 6 6 5 5 5 5 4 5 7 9 6 5 8 7 5 7 7 7 6 8 10 10 12 14 17 18 19 22 24 26 28 29 29 28 28 29 29 28 26 23 23 25 24 24 26 28 31 35 40 46 50 49 47 47
17 15 14 15 15 14 11 10 11 13 13 12 11 11 12 12 13 13 13 13 12 12 11 11 10 8 7 6 6 6 6 5 5 4 5 4 4 3 3 6 7 5 5 7 7 7 6 7 8 9 10 11 12 13 16 18 18 20 23 24 26 28 29 28 27 28 29 28 26 24 22 23 23 22 24 27 29 32 37 42 47 51 50 51 52
16 15 13 13 13 13 11 10 12 13 13 12 12 12 13 13 14 13 13 13 12 12 11 10 8 8 7 7 7 7 6 6 5 5 4 4 4 4 4 5 5 3 3 3 3 4 5 5 8 11 12 13 14 15 16 18 20 22 23 24 26 28 27 27 27 28 28 27 25 23 22 22 20 21 24 27 30 34 39 43 48 51 52 54 54
15 14 13 13 14 14 12 12 13 13 13 13 13 13 13 14 14 14 13 13 11 11 10 9 9 9 8 8 8 8 7 7 7 6 6 5 4 5 5 4 3 3 1 1 2 3 6 8 9 11 14 15 15 16 17 19 21 22 22 24 27 26 26 27 28 29 27 26 25 23 22 20 19 21 25 28 31 35 39 44 48 51 54 56 54
15 14 14 14 14 13 12 13 13 13 13 13 13 14 14 15 14 14 13 12 11 10 10 10 10 10 9 9 8 7 8 8 7 7 7 6 5 5 4 3 2 1 2 4 5 5 6 9 11 12 14 16 16 16 19 21 21 21 23 25 27 25 26 29 30 28 27 26 25 23 21 19 18 22 26 29 32 36 40 45 49 53 56 56 53
15 14 13 13 14 13 13 14 14 14 13 13 14 14 15 15 15 14 13 12 11 11 12 12 11 10 9 8 7 7 7 7 7 7 7 6 6 5 3 2 1 2 3 5 8 8 8 10 12 14 15 17 17 18 20 22 21 22 25 26 25 25 27 30 30 28 27 27 26 23 21 19 20 24 28 30 34 37 41 46 51 55 56 56 52
14 12 11 13 13 13 15 15 14 14 14 13 15 15 15 15 15 15 14 13 13 13 13 12 11 10 9 8 7 7 7 8 8 8 7 6 5 4 3 1 1 3 5 7 9 12 12 13 14 16 17 18 19 19 20 21 22 25 26 26 26 27 28 30 31 29 27 27 27 25 24 23 24 26 30 32 35 37 41 47 52 54 55 55 52
13 11 11 13 14 14 15 15 15 14 14 14 16 16 16 16 16 15 14 14 14 13 13 12 11 10 9 9 9 8 8 8 8 8 7 5 3 2 1 0 2 4 6 9 11 13 16 16 17 19 21 21 20 20 19 20 23 25 27 27 27 27 27 29 32 31 28 28 28 27 27 27 27 29 31 33 34 37 42 48 52 53 54 54 52
14 12 11 13 14 15 16 16 15 15 15 16 17 16 16 16 17 16 15 14 14 13 12 12 11 9 9 9 9 9 9 8 7 7 7 4 2 1 1 1 3 5 7 9 11 14 16 18 19 20 21 21 21 20 20 22 24 25 26 27 28 28 27 29 33 33 29 29 30 29 29 29 30 30 32 33 34 37 43 49 50 51 53 53 52
15 12 12 14 14 15 16 16 15 16 16 17 17 17 17 17 17 16 14 14 14 14 13 12 11 10 10 10 10 10 9 7 6 6 5 4 2 1 2 3 4 6 8 9 12 14 16 18 20 20 20 21 22 21 22 24 26 26 27 28 29 29 28 30 34 34 31 31 31 31 31 32 32 32 32 32 34 39 46 49 49 51 53 53 52
15 13 13 14 15 15 15 16 16 16 17 18 18 18 18 18 18 16 15 14 14 14 13 13 12 11 10 10 10 9 7 5 5 5 5 4 2 1 2 4 5 6 8 10 12 13 15 16 19 20 21 22 24 24 23 24 25 28 31 33 32 31 31 33 37 37 33 33 33 34 35 35 34 34 34 34 37 42 47 49 48 50 53 53 52
17 15 14 14 15 16 16 17 17 17 18 19 19 19 19 19 17 15 15 15 15 14 13 13 12 11 11 10 9 8 5 4 5 5 5 4 3 2 3 4 6 7 9 11 12 13 14 16 18 21 23 24 25 25 23 23 24 28 34 37 38 38 35 36 40 40 37 35 36 36 36 36 36 36 35 37 40 44 48 48 48 51 52 52 53
19 17 15 13 15 17 17 18 18 18 19 19 19 19 20 18 16 16 17 17 15 14 13 12 12 12 11 10 8 7 6 6 6 6 4 4 3 2 3 5 7 8 10 11 12 13 15 17 20 23 26 26 25 24 24 25 28 31 35 37 40 42 41 38 40 41 40 39 40 40 39 38 38 37 37 40 43 46 48 48 49 52 52 53 53
21 18 15 14 16 19 19 19 19 19 19 19 19 21 19 17 17 18 18 17 15 14 13 13 13 13 12 10 8 8 7 7 6 5 4 3 3 3 4 6 7 9 10 11 13 15 17 20 23 25 27 26 25 25 26 29 32 34 36 36 38 41 43 41 40 40 41 42 43 43 41 40 40 40 41 43 45 46 48 49 51 53 53 54 53
22 19 16 16 18 20 21 21 21 21 20 20 20 20 17 17 19 20 19 17 15 15 14 13 13 13 11 10 9 9 8 7 6 5 4 3 3 4 5 7 8 9 11 12 14 16 18 21 24 26 26 24 24 26 28 30 32 33 35 36 38 40 42 43 42 40 41 43 44 44 42 41 41 43 44 45 46 47 48 50 52 53 54 54 52
23 20 18 19 20 22 23 23 23 23 21 20 20 18 17 18 20 20 19 17 15 15 14 14 13 13 12 11 10 9 9 8 7 6 4 3 3 5 6 7 9 10 12 13 14 16 18 21 23 23 21 22 24 26 28 30 31 33 34 35 37 40 42 44 45 43 42 42 44 44 44 42 43 45 46 46 46 47 48 51 52 53 54 54 51
24 22 21 21 23 24 25 25 25 24 21 20 19 17 18 20 20 19 18 16 15 15 15 14 13 12 12 11 11 10 9 9 8 6 4 3 4 5 6 7 9 11 12 13 14 15 17 20 21 19 19 21 25 26 28 30 31 32 33 34 36 38 40 42 44 44 43 43 43 44 44 44 44 46 46 46 47 48 49 51 52 53 54 54 50
26 24 24 24 25 26 27 27 27 25 21 19 19 19 19 20 20 19 17 16 16 15 15 14 13 12 12 11 10 10 9 9 8 7 5 5 5 5 6 7 9 10 11 11 12 13 16 17 17 17 18 21 24 26 27 28 30 31 33 34 35 36 39 41 42 43 43 43 43 43 44 45 45 46 47 47 48 48 50 51 52 53 54 54 51
27 26 26 26 27 27 29 29 28 26 22 19 18 19 20 20 20 19 18 17 16 15 14 14 12 12 12 11 10 9 10 10 9 8 7 6 5 5 6 8 9 10 11 10 10 11 13 14 14 15 18 20 22 25 26 26 28 30 31 33 35 36 39 41 41 42 42 41 41 42 43 45 46 46 47 49 48 49 50 52 53 54 55 54 51
28 27 27 27 28 29 30 29 28 27 23 18 17 19 20 20 20 19 18 17 16 14 13 13 12 12 12 11 10 10 11 11 9 7 7 6 5 5 6 8 9 10 10 9 9 10 10 10 12 15 18 19 20 22 24 24 26 27 28 31 33 35 39 41 41 42 41 39 40 41 43 45 45 46 48 49 49 49 50 52 54 55 55 54 50
29 28 28 28 29 30 31 30 29 29 25 19 17 20 21 21 21 19 18 17 16 14 14 14 13 13 13 13 12 11 11 10 8 6 6 5 5 5 6 8 8 9 10 8 7 8 8 8 11 14 16 18 19 21 22 23 25 26 27 29 32 35 38 41 43 44 43 40 40 42 44 45 44 46 48 49 50 49 50 52 54 55 55 55 50
30 29 29 29 29 30 31 31 30 30 26 19 18 22 22 22 22 20 19 19 17 16 16 16 16 16 16 16 16 15 14 11 8 7 7 6 5 5 6 7 8 9 8 6 5 5 5 6 9 12 14 16 17 20 21 22 24 26 28 30 33 35 38 40 42 44 43 41 40 41 43 43 44 46 48 50 50 49 50 53 55 55 56 55 50
31 30 29 29 29 30 31 32 31 30 26 20 19 22 23 23 23 22 21 21 19 18 19 19 20 19 18 18 18 17 16 13 9 7 7 6 5 6 7 7 8 7 5 4 3 2 2 6 9 10 13 15 17 19 21 22 23 25 27 30 32 34 36 39 41 42 42 40 39 40 42 42 43 45 48 50 50 49 50 54 55 56 58 57 51
32 30 27 27 28 30 32 32 31 30 26 22 21 23 22 23 24 23 24 23 21 21 21 21 20 19 18 18 18 16 15 13 10 8 7 6 5 6 7 7 7 6 4 3 4 3 4 7 10 12 14 16 17 19 20 22 24 26 26 28 30 32 34 37 39 41 42 41 40 40 41 42 43 44 47 49 49 49 52 55 56 57 59 59 54
Wind_Direction
200 197 194 192 203 199 188 198 197 191 186 178 179 181 176 158 150 164 173 174 175 175 194 248 213 119 3 349 159 289 6 46 29 1 358 333 314 321 338 350 342 318 296 295 302 308 314 317 321 322 325 321 313 316 323 330 333 334 337 337 338 339 341 341 341 341 338 338 341 343 340 336 332 329 329 330 335 337 333 334 320 306 317 318 311
209 208 197 196 212 209 200 213 211 200 193 187 189 191 183 163 162 171 177 180 165 157 151 145 148 129 339 90 117 160 358 54 34 359 341 313 313 319 331 353 1 351 330 319 325 328 328 325 323 323 322 317 316 321 326 332 335 337 340 340 341 342 343 344 345 344 343 344 346 347 346 343 338 332 328 324 324 324 320 324 324 309 304 302 303
208 222 214 202 209 207 206 215 215 208 202 198 199 200 192 178 180 180 173 177 151 130 122 130 143 146 146 130 121 156 220 193 2 325 289 285 295 306 316 336 355 356 346 336 337 334 329 324 321 321 319 316 318 324 329 335 338 340 342 343 343 344 346 347 348 349 346 347 350 350 349 349 347 343 338 332 326 322 317 317 318 314 308 302 298
199 217 220 205 203 201 200 206 210 210 202 197 200 201 197 187 196 196 184 193 161 121 142 156 155 155 155 153 149 166 201 204 213 229 248 266 279 293 308 323 334 340 340 337 333 330 325 322 321 320 321 322 325 331 335 339 342 342 345 346 345 346 348 349 349 350 348 348 350 351 350 348 348 347 344 342 336 329 324 321 315 311 308 305 303
200 213 216 203 201 199 199 206 208 205 197 194 198 198 196 191 199 209 207 212 192 158 189 186 171 170 174 177 176 181 196 207 221 239 254 266 278 290 301 311 318 325 333 333 331 330 326 324 326 328 332 333 333 336 337 341 343 344 345 346 347 346 347 347 347 348 347 347 348 350 350 348 347 346 345 343 341 336 333 331 323 315 308 305 304
203 207 208 200 198 199 202 208 204 201 198 195 198 195 196 197 199 205 201 197 173 180 201 202 193 189 193 199 195 192 198 211 226 239 254 268 282 290 296 303 310 317 324 329 331 330 327 327 331 334 336 336 336 338 339 342 344 346 348 348 349 348 347 348 348 349 349 348 347 349 349 348 347 346 345 344 342 338 335 334 329 322 314 307 302
203 200 202 198 199 206 207 207 204 204 201 197 199 198 198 198 200 198 180 165 171 190 202 207 207 205 207 210 208 206 207 214 223 232 248 265 283 294 300 304 306 310 314 319 325 328 327 330 335 337 338 338 339 342 343 345 348 351 353 355 356 355 354 353 353 353 352 351 349 350 349 348 348 347 345 344 343 341 337 334 331 327 321 315 308
213 205 204 202 203 207 207 206 204 202 202 202 204 204 200 195 200 194 166 164 191 203 209 215 217 218 221 219 220 221 218 216 219 227 240 255 273 288 294 298 299 303 310 316 325 334 333 335 342 343 343 344 343 346 351 353 355 359 2 4 4 3 2 360 359 357 355 354 352 351 351 349 349 349 347 344 343 342 339 337 333 329 324 319 316
223 213 206 205 206 203 202 205 202 196 198 205 206 209 209 203 202 188 171 180 200 207 213 222 227 230 233 236 238 234 222 217 221 233 251 262 269 276 282 287 291 298 309 315 325 339 339 342 351 351 350 352 349 351 0 3 4 8 10 11 10 8 7 4 2 360 357 356 355 354 353 351 350 349 348 345 342 340 339 338 337 334 327 322 319
221 218 211 206 205 202 201 203 201 195 197 202 202 206 219 225 220 191 182 191 205 209 214 223 231 236 242 250 253 245 228 219 224 236 251 264 270 275 278 277 278 289 304 309 323 340 340 343 353 1 4 7 4 2 8 11 15 18 16 13 12 10 8 6 3 1 360 358 356 355 353 352 349 348 346 343 341 338 336 335 335 335 332 327 322
217 219 215 205 202 204 203 204 203 200 204 206 206 208 215 226 224 197 189 198 209 213 217 222 228 234 244 257 257 242 228 217 219 229 245 265 273 274 269 269 280 301 314 317 333 341 340 343 353 7 14 19 25 24 22 23 26 25 21 17 14 12 10 7 5 2 1 359 357 355 352 350 348 346 344 341 338 335 334 332 331 331 331 330 326
217 217 212 205 204 209 207 207 207 205 208 211 217 222 219 219 218 199 191 200 207 213 221 223 224 230 240 255 239 215 211 212 217 228 245 260 268 274 281 298 309 314 322 325 336 346 349 356 5 13 19 22 25 30 34 37 37 30 24 21 16 14 11 8 7 4 3 0 357 353 350 348 346 343 341 338 336 333 331 329 327 326 324 325 325
212 204 200 200 204 210 211 213 211 209 211 217 226 229 222 213 211 196 189 199 206 211 220 224 228 237 240 223 188 183 197 209 222 246 246 231 235 265 298 311 310 317 321 315 330 22 33 25 29 27 28 27 23 29 37 41 43 36 28 23 17 15 13 10 9 6 4 1 356 352 349 346 343 340 338 335 333 331 329 326 325 324 321 319 320
207 200 199 204 208 210 214 218 218 217 221 222 224 225 222 218 217 202 192 199 206 209 215 221 230 234 225 191 169 168 185 198 221 247 231 202 225 259 289 309 315 317 309 306 339 27 48 52 48 44 42 39 32 34 40 40 39 35 28 23 20 18 15 12 11 8 4 358 353 349 345 342 339 337 335 332 329 328 327 327 328 327 325 322 321
200 200 204 211 215 214 216 221 224 226 225 216 213 218 220 220 216 200 193 198 203 206 212 218 221 216 213 201 182 184 196 199 213 226 213 185 215 262 305 342 349 323 307 323 1 19 39 57 63 58 52 48 44 41 42 40 36 33 26 22 20 17 15 12 9 6 1 355 353 350 347 345 343 341 337 334 332 330 328 327 326 326 328 328 327
200 200 205 213 221 225 228 228 225 226 226 219 213 213 212 212 208 191 191 200 203 205 212 216 218 215 211 200 192 206 220 216 206 202 203 183 160 9 359 1 350 325 318 347 10 11 19 29 52 60 54 48 44 42 40 38 34 31 26 21 17 14 14 12 9 6 0 357 357 355 354 353 352 349 344 341 338 335 333 332 328 326 326 326 325
210 209 210 217 226 231 233 229 223 222 225 225 222 215 207 206 206 195 193 201 209 212 214 215 219 221 211 194 194 213 224 220 203 197 200 183 151 9 4 4 354 347 351 15 20 5 2 12 30 49 53 47 41 39 37 32 28 24 20 17 14 13 15 14 10 6 2 1 0 359 359 358 357 355 350 345 341 338 339 339 335 332 328 326 324
218 223 222 224 227 226 225 219 217 218 218 222 223 222 212 206 208 205 197 200 208 215 215 212 216 219 213 206 205 212 210 201 193 196 206 201 204 262 270 343 3 8 15 27 26 9 0 11 32 41 46 44 36 32 31 26 20 14 10 9 10 13 14 13 9 5 3 2 1 1 360 358 357 356 351 344 340 340 340 339 337 335 332 331 329
221 230 233 232 225 219 218 215 215 216 216 219 221 221 215 208 209 208 201 202 205 212 218 218 219 218 217 217 224 235 224 209 206 206 218 224 227 242 270 319 352 3 5 13 18 15 11 19 42 47 45 41 33 29 25 19 12 5 2 4 8 11 11 10 8 5 3 2 1 360 356 354 352 350 346 339 337 339 336 335 335 333 332 332 329
221 228 233 236 227 216 214 212 212 215 217 219 218 218 215 210 209 203 203 209 209 212 219 220 219 219 221 225 231 237 227 223 223 213 227 254 252 267 279 299 337 352 348 357 6 9 11 13 34 47 43 35 28 21 16 10 4 357 357 2 5 7 7 7 6 3 2 1 359 357 353 349 347 343 339 335 335 336 334 333 331 330 329 327 324
218 226 231 234 225 213 212 212 213 218 220 222 220 216 215 215 210 203 207 215 218 222 224 221 219 218 220 220 219 216 208 209 210 202 208 239 257 301 320 296 335 348 335 345 354 354 359 6 17 29 29 22 15 8 2 358 357 354 355 360 3 4 4 4 2 0 359 358 357 354 350 347 346 343 337 334 334 333 332 332 331 329 326 323 321
215 225 229 225 213 206 211 216 220 225 225 227 225 217 215 216 211 209 213 219 224 230 232 228 221 216 214 211 208 209 207 208 209 207 214 225 229 215 93 331 336 339 335 336 339 347 2 11 14 15 14 7 359 353 349 347 350 352 353 358 2 3 2 360 358 357 356 355 353 350 346 345 345 342 336 334 333 332 332 332 330 328 324 323 323
212 221 224 219 211 206 211 218 223 229 231 230 229 221 214 213 212 213 216 220 224 227 230 229 222 216 214 210 212 215 212 213 215 216 219 217 211 201 190 239 312 322 331 325 328 357 22 23 17 12 7 358 346 337 336 339 345 348 352 359 3 1 359 356 354 354 352 351 348 345 343 343 343 341 337 335 334 333 334 333 330 329 327 326 326
213 220 220 217 217 214 216 221 224 229 234 233 228 222 216 214 215 216 218 220 221 223 224 223 220 220 219 216 221 228 228 228 228 227 226 218 208 194 178 184 209 323 319 304 319 18 39 33 23 16 6 348 329 322 325 334 342 345 353 0 1 358 354 352 352 350 349 347 345 342 342 341 339 338 336 334 335 336 336 335 334 333 331 330 328
214 221 221 217 216 222 226 227 226 229 235 235 229 221 218 218 218 218 219 218 218 218 217 218 220 223 225 225 231 239 240 243 246 242 238 233 225 212 204 213 190 90 11 291 292 52 51 37 26 23 1 318 305 309 320 333 341 346 354 356 355 353 350 349 348 346 345 344 343 341 339 337 336 335 334 335 338 338 336 337 339 337 334 331 328
214 216 221 220 217 224 230 228 225 226 231 233 227 219 216 216 217 216 214 213 213 214 214 218 222 224 228 231 234 240 243 243 248 248 245 241 233 223 222 222 192 134 61 157 174 105 56 11 344 304 274 284 292 306 326 339 344 349 352 350 349 348 347 347 345 343 343 343 341 339 335 334 334 334 336 339 337 334 335 339 343 342 338 332 327
218 214 217 222 224 225 228 227 225 223 224 227 223 217 214 212 212 210 208 207 207 210 213 217 221 224 227 230 232 237 238 237 238 238 238 236 234 232 229 207 189 172 122 145 166 193 255 291 309 292 283 291 303 322 341 346 347 349 349 346 344 343 344 344 342 342 343 342 339 335 333 335 336 336 339 337 332 331 335 339 342 343 342 339 332
225 220 214 218 224 226 228 229 223 218 217 219 217 214 212 208 206 204 203 202 203 207 211 214 217 218 219 222 226 227 224 227 229 223 225 228 228 233 223 198 195 201 181 171 187 237 273 292 310 317 318 322 331 344 350 349 348 347 345 342 339 339 342 342 342 344 343 340 337 334 334 336 336 338 336 331 329 331 334 337 340 341 341 340 337
225 221 214 216 224 230 238 230 212 206 208 211 209 208 207 204 204 204 203 203 204 207 211 214 216 216 217 217 219 217 209 206 210 209 211 216 212 207 198 190 192 212 221 215 235 268 294 310 321 332 336 338 342 350 353 350 348 347 342 338 336 338 341 342 344 346 343 340 339 337 336 335 336 337 331 326 328 332 334 337 339 338 337 338 338
218 215 216 219 226 236 239 217 199 198 201 204 204 204 204 203 204 204 204 206 209 210 213 216 216 213 210 208 207 205 201 195 191 191 198 208 204 184 171 174 176 181 198 215 250 292 322 333 336 337 339 343 348 352 353 351 348 345 338 333 335 339 341 344 347 346 344 341 341 340 337 335 336 333 325 324 329 332 334 335 335 335 336 337 337
212 214 220 225 232 239 230 204 194 196 198 201 204 204 203 204 205 205 206 209 211 212 213 212 211 209 206 205 204 199 192 188 187 187 191 198 195 181 170 171 168 157 152 22 23 4 343 340 345 343 340 345 351 353 352 349 345 339 333 332 337 340 343 346 347 346 345 343 342 342 338 335 335 328 322 324 328 329 330 331 331 333 335 336 336
212 217 224 231 238 238 218 196 193 196 199 202 204 204 203 205 207 208 209 210 210 211 210 209 209 209 209 208 206 201 194 191 190 189 192 193 185 180 182 182 168 98 22 359 2 9 359 345 343 346 345 345 351 355 350 344 339 333 332 336 339 343 347 347 345 346 346 345 344 343 340 338 334 326 323 324 326 326 325 328 332 335 336 337 336
215 221 228 234 238 228 206 193 193 198 201 203 205 205 205 207 208 209 210 210 210 209 210 211 211 210 210 207 202 202 202 201 198 194 195 198 191 186 188 183 158 3 359 354 348 352 360 352 345 349 350 347 350 354 346 338 335 334 337 340 342 348 350 346 344 348 349 347 348 347 345 343 337 330 327 327 326 323 323 329 335 337 337 338 338
217 227 234 235 230 213 197 193 195 199 203 204 206 207 207 209 211 210 210 210 210 210 212 214 213 210 207 201 198 200 205 205 200 193 194 203 206 198 187 188 341 350 352 351 346 343 346 349 348 350 351 350 351 351 344 336 335 337 340 343 347 351 349 345 347 352 353 351 352 351 349 347 342 336 332 329 325 321 325 333 337 338 339 339 339
219 232 238 234 221 200 192 194 196 200 203 206 209 210 209 212 214 213 210 209 210 211 214 214 212 210 204 199 198 200 205 205 198 194 196 202 214 215 189 302 341 352 353 348 344 340 340 345 350 351 351 351 350 349 345 339 339 342 343 345 349 350 347 346 351 356 356 355 355 354 352 351 348 342 335 329 324 321 328 335 337 338 340 340 339
220 232 234 227 212 194 192 196 198 201 204 207 210 211 211 213 215 215 211 209 210 211 212 212 211 208 202 199 201 203 208 207 198 198 200 195 202 239 278 325 344 350 349 345 342 340 339 343 349 351 351 350 350 351 348 343 343 346 346 348 350 350 348 348 354 359 357 354 354 355 354 353 350 345 338 331 325 325 331 335 336 338 342 341 338
219 232 232 222 208 197 197 200 201 204 206 210 212 212 211 213 214 215 212 209 209 209 209 210 209 207 202 203 206 209 212 208 196 195 197 192 200 264 314 328 342 344 343 343 342 340 341 344 346 348 351 351 351 354 352 347 346 349 351 353 354 353 350 351 356 359 357 352 352 355 355 353 351 346 341 334 328 329 333 335 335 338 341 340 337
219 230 233 222 210 203 203 204 207 208 208 212 214 212 212 213 212 212 211 210 210 210 210 209 208 208 207 209 213 216 217 205 191 194 196 196 203 254 304 321 334 338 340 341 340 339 341 345 346 348 353 356 354 354 356 352 350 354 357 357 357 357 354 352 355 359 358 353 351 354 354 352 350 346 341 336 332 333 335 335 335 339 341 339 336
221 229 232 225 214 209 208 209 211 211 211 213 214 213 215 215 213 212 213 215 214 212 211 209 209 212 214 216 219 218 212 192 186 196 203 204 214 248 290 315 329 336 339 337 336 339 342 346 350 352 356 359 356 356 359 359 358 1 1 357 356 357 355 352 352 355 357 354 351 352 353 351 348 346 342 338 336 336 337 336 336 339 340 337 335
223 229 231 228 217 211 212 214 213 213 213 214 214 215 215 213 213 217 218 218 216 213 211 208 209 214 218 219 220 217 207 197 195 200 207 216 232 270 301 318 330 335 335 333 335 339 346 351 356 357 357 358 0 2 5 5 2 3 2 357 353 353 353 351 350 352 355 354 351 350 351 350 348 346 344 341 340 339 338 338 339 340 339 335 334
223 225 228 227 218 212 212 213 216 216 214 215 215 214 214 216 217 218 218 218 217 215 212 209 210 216 219 217 215 214 212 209 205 206 214 227 254 291 307 319 330 332 329 333 339 344 351 357 359 358 356 360 7 9 8 7 2 359 359 356 351 351 350 347 349 353 355 353 350 349 350 350 348 346 345 343 343 342 341 340 341 341 338 336 335
222 222 223 222 218 214 211 212 216 216 214 215 214 213 222 228 222 217 217 217 215 214 214 213 214 218 218 216 214 213 214 215 212 211 220 236 269 293 308 320 329 330 329 336 346 351 355 358 358 357 356 2 12 11 6 5 2 358 357 354 351 350 349 346 346 353 357 353 348 347 349 351 348 345 345 346 345 345 343 343 344 342 338 337 337
221 220 221 219 216 213 212 213 215 216 216 213 210 218 233 232 220 216 217 215 212 214 215 215 218 221 218 214 216 216 214 216 218 217 225 246 274 293 311 323 328 331 334 341 350 355 355 353 355 359 360 4 12 11 6 3 0 358 357 355 352 351 350 346 343 348 355 354 348 345 347 351 349 345 345 347 347 346 344 344 345 343 339 339 339
219 218 217 215 213 211 212 214 216 219 219 211 213 229 234 223 216 216 216 213 214 215 214 216 219 224 222 216 217 218 215 218 224 224 229 247 267 288 311 324 329 332 336 342 350 354 353 350 354 4 9 6 7 8 6 2 358 357 357 356 355 353 350 347 343 345 353 356 350 345 345 349 350 346 345 348 348 346 345 346 347 344 341 341 342
217 216 214 213 212 212 213 215 217 220 218 215 225 233 224 215 215 215 212 213 216 214 214 218 219 222 226 222 216 215 214 221 229 229 227 236 255 284 312 325 329 330 333 342 349 350 349 350 356 11 15 7 3 6 7 3 358 357 355 354 356 355 352 350 347 347 354 357 353 347 344 347 350 347 345 348 349 347 346 348 348 345 343 345 346
215 215 215 214 214 213 214 216 219 219 217 225 234 227 216 214 214 211 211 213 214 214 215 217 215 219 227 227 221 217 217 221 225 228 229 238 263 296 317 324 327 326 328 340 351 349 350 355 2 14 16 9 3 3 5 4 360 356 353 353 356 355 353 354 352 351 356 0 357 349 344 346 351 349 346 349 349 347 348 349 348 347 346 348 350
217 217 217 217 216 214 214 216 220 219 220 232 233 219 214 214 211 210 213 212 210 213 215 212 211 219 229 234 234 231 228 224 219 221 232 248 276 301 315 321 322 323 327 340 354 353 356 6 12 15 14 9 4 2 2 1 358 355 354 355 354 352 353 354 354 353 357 2 2 353 344 346 352 350 347 349 349 348 350 351 349 349 350 351 353
217 217 218 218 217 216 215 217 219 219 223 233 228 216 214 214 211 211 213 210 206 208 211 209 209 218 229 236 241 245 244 237 224 222 237 254 277 298 311 316 318 322 328 340 354 354 0 17 19 15 10 5 2 0 358 357 356 356 356 355 353 352 353 354 353 353 355 1 4 357 347 347 353 351 348 350 350 349 351 351 351 352 354 354 355
219 219 218 218 218 218 218 219 220 220 224 231 226 217 214 214 214 212 210 210 207 206 210 212 213 220 229 236 244 251 252 249 242 239 245 252 271 293 303 308 317 325 330 340 354 352 3 27 25 15 9 3 0 359 357 358 0 359 357 354 353 354 355 354 353 352 353 360 4 358 349 349 354 353 350 350 351 350 351 351 353 355 357 357 358
223 222 221 219 220 220 221 222 223 223 225 230 226 219 215 216 217 214 210 210 209 207 211 216 218 224 230 236 242 246 247 248 249 245 242 247 265 287 296 304 318 326 326 339 358 359 31 43 34 20 10 5 1 0 1 4 6 4 360 357 356 356 357 357 355 353 354 0 4 359 352 352 355 355 352 350 350 352 352 352 355 358 359 359 0
224 222 221 220 220 220 221 224 226 226 228 230 225 218 216 217 219 216 211 211 212 212 215 221 226 229 231 235 238 239 239 241 242 237 236 244 262 281 292 302 316 323 318 341 19 41 52 42 30 19 11 6 3 4 6 8 8 7 5 4 2 1 0 0 359 356 355 359 4 1 355 353 355 356 355 351 347 349 353 354 356 359 1 1 1